Weather History for KPEZ - December, 2012

Change the Weather History Date:

Monday, December 17, 2012

  Actual Average Record
Temperature  
Mean Temperature 59 °F -  
Max Temperature 77 °F 65 °F 80 °F (1990)
Min Temperature 41 °F 40 °F 26 °F (2007)
Degree Days  
Heating Degree Days 6    
Growing Degree Days 9 (Base 50)    
Moisture  
Dew Point 37 °F    
Average Humidity 59    
Maximum Humidity 94    
Minimum Humidity 17    
Precipitation  
Precipitation 0.00 in - - ()
Sea Level Pressure  
Sea Level Pressure 29.95 in    
Wind  
Wind Speed 4 mph (West)    
Max Wind Speed 13 mph    
Max Gust Speed 17 mph    
Visibility 10 miles    
Events      
Averages and records for this station are not official NWS values.
T = Trace of Precipitation, MM = Missing Value Source: NWS Daily Summary

Daily Weather History Graph

Daily Weather History Graph

Search for Another Location

Airport or City:

Trip Planner

Search our weather history database for the weather conditions in past years. The results will help you decide how hot, cold, wet, or windy it might be!

Date:

Astronomy

Dec. 17, 2012 Rise Set
Actual Time 7:21 AM CST 5:39 PM CST
Civil Twilight 6:55 AM CST 6:05 PM CST
Nautical Twilight 6:25 AM CST 6:35 PM CST
Astronomical Twilight 5:56 AM CST 7:04 PM CST
Moon 10:50 AM CST (12/17) 10:40 PM CST (12/17)
Length of Visible Light 11h 10m
Length of Day
10h 18m
Waxing Crescent, 25% of the Moon is Illuminated
Dec 17
Waxing Crescent
Dec 19
First Quarter
Dec 28
Full
Jan 4
Last Quarter
Jan 11
New

Hourly Weather History & Observations

Time (CST) Temp. Windchill Dew Point Humidity Pressure Visibility Wind Dir Wind Speed Gust Speed Precip Events Conditions
12:15 AM 51.8 °F - 50.0 °F 94% 29.88 in 10.0 mi NW 6.9 mph - N/A   Clear
12:35 AM 51.8 °F - 46.4 °F 82% 29.91 in 10.0 mi South 3.5 mph - N/A   Clear
1:15 AM 50.0 °F - 46.4 °F 87% 29.92 in 10.0 mi SW 3.5 mph - N/A   Clear
1:55 AM 48.2 °F - 44.6 °F 87% 29.92 in 10.0 mi Calm Calm - N/A   Clear
2:15 AM 48.2 °F - 44.6 °F 87% 29.93 in 10.0 mi Calm Calm - N/A   Clear
2:35 AM 46.4 °F - 44.6 °F 93% 29.93 in 10.0 mi Calm Calm - N/A   Clear
2:55 AM 44.6 °F 42.2 °F 42.8 °F 93% 29.93 in 10.0 mi West 4.6 mph - N/A   Clear
3:15 AM 46.4 °F 45.2 °F 42.8 °F 87% 29.93 in 10.0 mi WNW 3.5 mph - N/A   Clear
3:35 AM 46.4 °F 44.3 °F 42.8 °F 87% 29.93 in 10.0 mi WNW 4.6 mph - N/A   Clear
3:55 AM 46.4 °F 43.5 °F 42.8 °F 87% 29.94 in 10.0 mi WNW 5.8 mph - N/A   Clear
4:15 AM 46.4 °F 43.5 °F 42.8 °F 87% 29.94 in 10.0 mi WNW 5.8 mph - N/A   Clear
4:55 AM 44.6 °F - 41.0 °F 87% 29.94 in 10.0 mi Calm Calm - N/A   Clear
5:15 AM 44.6 °F - 41.0 °F 87% 29.95 in 10.0 mi Calm Calm - N/A   Clear
5:35 AM 42.8 °F - 41.0 °F 93% 29.95 in 10.0 mi Calm Calm - N/A   Clear
5:55 AM 42.8 °F - 41.0 °F 93% 29.96 in 10.0 mi Calm Calm - N/A   Clear
6:15 AM 42.8 °F - 39.2 °F 87% 29.97 in 10.0 mi Calm Calm - N/A   Clear
6:35 AM 42.8 °F - 41.0 °F 93% 29.97 in 10.0 mi Calm Calm - N/A   Clear
6:55 AM 41.0 °F - 37.4 °F 87% 29.98 in 10.0 mi Calm Calm - N/A   Clear
7:15 AM 41.0 °F - 37.4 °F 87% 29.98 in 10.0 mi Calm Calm - N/A   Clear
7:35 AM 42.8 °F - 37.4 °F 81% 29.98 in 10.0 mi Calm Calm - N/A   Clear
8:15 AM 46.4 °F 44.3 °F 42.8 °F 87% 30.00 in 10.0 mi West 4.6 mph - N/A   Clear
8:35 AM 51.8 °F - 44.6 °F 76% 30.01 in 10.0 mi West 5.8 mph - N/A   Clear
8:55 AM 57.2 °F - 42.8 °F 59% 30.01 in 10.0 mi West 6.9 mph - N/A   Clear
9:15 AM 59.0 °F - 39.2 °F 48% 30.02 in 10.0 mi West 9.2 mph - N/A   Clear
9:35 AM 60.8 °F - 37.4 °F 42% 30.02 in 10.0 mi West 10.4 mph - N/A   Clear
9:55 AM 62.6 °F - 37.4 °F 39% 30.03 in 10.0 mi West 9.2 mph - N/A   Clear
10:15 AM 62.6 °F - 37.4 °F 39% 30.03 in 10.0 mi West 8.1 mph - N/A   Clear
10:35 AM 64.4 °F - 35.6 °F 34% 30.03 in 10.0 mi WNW 10.4 mph - N/A   Clear
10:55 AM 64.4 °F - 35.6 °F 34% 30.03 in 10.0 mi West 12.7 mph - N/A   Clear
11:15 AM 66.2 °F - 33.8 °F 30% 30.02 in 10.0 mi WNW 8.1 mph - N/A   Clear
11:55 AM 68.0 °F - 33.8 °F 28% 30.00 in 10.0 mi West 8.1 mph - N/A   Clear
12:15 PM 68.0 °F - 33.8 °F 28% 29.98 in 10.0 mi WNW 9.2 mph - N/A   Clear
12:55 PM 71.6 °F - 33.8 °F 25% 29.96 in 10.0 mi West 11.5 mph - N/A   Clear
1:15 PM 71.6 °F - 32.0 °F 23% 29.94 in 10.0 mi West 10.4 mph 16.1 mph N/A   Clear
1:55 PM 73.4 °F - 32.0 °F 22% 29.91 in 10.0 mi West 8.1 mph - N/A   Clear
2:15 PM 75.2 °F - 30.2 °F 19% 29.91 in 10.0 mi West 9.2 mph - N/A   Clear
2:55 PM 77.0 °F - 28.4 °F 17% 29.90 in 10.0 mi WNW 10.4 mph 17.3 mph N/A   Clear
3:15 PM 77.0 °F - 28.4 °F 17% 29.89 in 10.0 mi West 12.7 mph - N/A   Clear
3:35 PM 77.0 °F - 28.4 °F 17% 29.89 in 10.0 mi West 12.7 mph 17.3 mph N/A   Clear
3:55 PM 75.2 °F - 26.6 °F 17% 29.89 in 10.0 mi WSW 9.2 mph - N/A   Clear
6:55 PM 55.4 °F - 33.8 °F 44% 29.91 in 10.0 mi Calm Calm - N/A   Clear
7:15 PM 53.6 °F - 32.0 °F 44% 29.91 in 10.0 mi Calm Calm - N/A   Clear
7:35 PM 51.8 °F - 32.0 °F 47% 29.91 in 10.0 mi Calm Calm - N/A   Clear
7:55 PM 51.8 °F - 33.8 °F 50% 29.91 in 10.0 mi Calm Calm - N/A   Clear
8:15 PM 51.8 °F - 33.8 °F 50% 29.91 in 10.0 mi Calm Calm - N/A   Clear
8:55 PM 51.8 °F - 32.0 °F 47% 29.91 in 10.0 mi Calm Calm - N/A   Clear
9:15 PM 53.6 °F - 32.0 °F 44% 29.92 in 10.0 mi Calm Calm - N/A   Clear
9:55 PM 53.6 °F - 32.0 °F 44% 29.93 in 10.0 mi Calm Calm - N/A   Clear
10:15 PM 50.0 °F - 33.8 °F 54% 29.93 in 10.0 mi Calm Calm - N/A   Clear
10:55 PM 44.6 °F - 33.8 °F 66% 29.94 in 10.0 mi Calm Calm - N/A   Clear
11:15 PM 44.6 °F - 33.8 °F 66% 29.94 in 10.0 mi Calm Calm - N/A   Clear
11:55 PM 42.8 °F - 33.8 °F 70% 29.93 in 10.0 mi Calm Calm - N/A   Clear